This is the latest recevied weather packets stored in our database for station/object IW2OBX-10. If no packets are shown the sender has not sent any weather packets the latest 10 day(s).
| Time | Temp. | Humidity | Pressure | Rain* | Wind** | Luminosity | Snow |
|---|---|---|---|---|---|---|---|
| 1777687821 | 11.11° C | 69% | 1026.9 hPa | - | - | - | - |
| 1777686920 | 11.11° C | 68% | 1026.7 hPa | - | - | - | - |
| 1777686019 | 11.11° C | 68% | 1026.8 hPa | - | - | - | - |
| 1777685118 | 11.67° C | 66% | 1026.8 hPa | - | - | - | - |
| 1777684218 | 11.67° C | 64% | 1026.8 hPa | - | - | - | - |
| 1777683317 | 11.67° C | 64% | 1026.8 hPa | - | - | - | - |
| 1777682416 | 11.67° C | 62% | 1026.7 hPa | - | - | - | - |
| 1777681515 | 12.22° C | 62% | 1026.7 hPa | - | - | - | - |
| 1777680614 | 12.22° C | 61% | 1026.6 hPa | - | - | - | - |
| 1777679714 | 12.22° C | 60% | 1026.8 hPa | - | - | - | - |
| 1777678813 | 12.22° C | 61% | 1026.8 hPa | - | - | - | - |
| 1777677911 | 12.22° C | 60% | 1026.8 hPa | - | - | - | - |
| 1777677010 | 12.22° C | 61% | 1026.8 hPa | - | - | - | - |
| 1777676109 | 12.78° C | 60% | 1026.7 hPa | - | - | - | - |
| 1777675208 | 12.78° C | 58% | 1026.7 hPa | - | - | - | - |
| 1777674309 | 13.33° C | 58% | 1026.6 hPa | - | - | - | - |
| 1777673407 | 13.33° C | 56% | 1026.5 hPa | - | - | - | - |
| 1777672506 | 13.33° C | 54% | 1026.3 hPa | - | - | - | - |
| 1777671605 | 13.89° C | 57% | 1026.2 hPa | - | - | - | - |
| 1777670704 | 13.89° C | 54% | 1026.3 hPa | - | - | - | - |
| 1777669803 | 13.89° C | 54% | 1026.2 hPa | - | - | - | - |
| 1777668902 | 13.89° C | 54% | 1026.3 hPa | - | - | - | - |
| 1777668002 | 13.89° C | 55% | 1026.2 hPa | - | - | - | - |
| 1777667101 | 14.44° C | 55% | 1026.2 hPa | - | - | - | - |
| 1777666204 | 14.44° C | 54% | 1026 hPa | - | - | - | - |
* Rain since midnight (hover to see other rain measurements)
** Current wind speed in m/s (hover to see current wind gust speed)